TimeEDT,TemperatureF,Dew PointF,Humidity,Sea Level PressureIn,VisibilityMPH,Wind Direction,Wind SpeedMPH,Gust SpeedMPH,PrecipitationIn,Events,Conditions,WindDirDegrees,DateUTC
12:56 AM,59.0,55.9,90,30.23,8.0,SE,6.9,-,N/A,,Overcast,130,2013-05-19 04:56:00
1:24 AM,59.0,55.4,88,30.22,8.0,ESE,8.1,-,N/A,,Overcast,120,2013-05-19 05:24:00
1:44 AM,57.2,55.4,94,30.21,3.0,ESE,8.1,-,N/A,,Overcast,110,2013-05-19 05:44:00
1:56 AM,57.9,55.9,93,30.21,4.0,East,6.9,-,N/A,,Overcast,100,2013-05-19 05:56:00
2:56 AM,57.9,55.9,93,30.19,7.0,East,5.8,-,N/A,,Overcast,100,2013-05-19 06:56:00
3:56 AM,57.9,55.9,93,30.20,5.0,NE,3.5,-,N/A,,Overcast,50,2013-05-19 07:56:00
4:21 AM,57.2,55.4,94,30.20,2.5,East,4.6,-,0.00,Rain,Light Rain,80,2013-05-19 08:21:00
4:56 AM,57.9,57.0,97,30.19,3.0,East,4.6,-,0.00,,Overcast,90,2013-05-19 08:56:00
5:23 AM,57.2,57.2,100,30.19,4.0,East,3.5,-,0.00,Rain,Light Rain,100,2013-05-19 09:23:00
5:41 AM,57.2,57.2,100,30.19,2.5,East,3.5,-,0.00,,Overcast,100,2013-05-19 09:41:00
5:56 AM,57.9,57.0,97,30.19,2.0,East,4.6,-,0.00,,Overcast,100,2013-05-19 09:56:00
6:27 AM,59.0,57.2,94,30.19,4.0,East,3.5,-,N/A,,Overcast,90,2013-05-19 10:27:00
6:56 AM,59.0,57.0,93,30.20,4.0,ESE,4.6,-,N/A,,Overcast,110,2013-05-19 10:56:00
7:19 AM,59.0,57.2,94,30.20,2.5,East,5.8,-,N/A,,Overcast,90,2013-05-19 11:19:00
7:38 AM,59.0,57.2,94,30.21,3.0,ESE,8.1,-,N/A,,Overcast,110,2013-05-19 11:38:00
7:56 AM,60.1,57.9,93,30.21,3.0,ESE,9.2,-,N/A,,Overcast,110,2013-05-19 11:56:00
8:56 AM,60.1,57.0,90,30.22,10.0,SE,11.5,-,N/A,,Overcast,130,2013-05-19 12:56:00
9:56 AM,61.0,57.9,90,30.22,10.0,ESE,9.2,-,N/A,,Overcast,120,2013-05-19 13:56:00
10:56 AM,61.0,57.9,90,30.22,6.0,ESE,9.2,-,N/A,,Overcast,120,2013-05-19 14:56:00
11:56 AM,61.0,57.9,90,30.21,7.0,ESE,10.4,-,N/A,,Overcast,120,2013-05-19 15:56:00
12:56 PM,62.1,59.0,90,30.19,7.0,ESE,8.1,-,N/A,,Overcast,120,2013-05-19 16:56:00
1:56 PM,62.6,59.0,88,30.17,10.0,SE,6.9,-,N/A,,Overcast,130,2013-05-19 17:56:00
2:34 PM,62.6,60.8,94,30.16,10.0,ESE,6.9,-,N/A,,Overcast,120,2013-05-19 18:34:00
2:56 PM,64.0,59.0,84,30.15,10.0,ESE,6.9,-,N/A,,Overcast,110,2013-05-19 18:56:00
3:56 PM,64.0,59.0,84,30.14,10.0,ESE,10.4,-,N/A,,Overcast,110,2013-05-19 19:56:00
4:56 PM,64.9,60.1,84,30.13,8.0,ESE,8.1,-,N/A,,Overcast,120,2013-05-19 20:56:00
5:56 PM,64.0,61.0,90,30.13,4.0,SE,6.9,-,N/A,,Overcast,130,2013-05-19 21:56:00
6:56 PM,64.0,61.0,90,30.12,3.0,SE,8.1,-,0.00,,Overcast,130,2013-05-19 22:56:00
7:16 PM,62.6,60.8,94,30.12,2.0,SE,6.9,-,N/A,,Overcast,130,2013-05-19 23:16:00
7:45 PM,62.6,60.8,94,30.12,3.0,SE,5.8,-,N/A,,Overcast,130,2013-05-19 23:45:00
7:56 PM,63.0,61.0,93,30.13,3.0,SE,4.6,-,N/A,,Overcast,130,2013-05-19 23:56:00
8:56 PM,63.0,61.0,93,30.14,6.0,SE,6.9,-,N/A,,Overcast,130,2013-05-20 00:56:00
9:56 PM,63.0,61.0,93,30.15,4.0,SE,6.9,-,N/A,,Overcast,130,2013-05-20 01:56:00
10:56 PM,63.0,61.0,93,30.14,4.0,ESE,5.8,-,N/A,,Overcast,110,2013-05-20 02:56:00
11:56 PM,63.0,61.0,93,30.14,4.0,SE,4.6,-,0.00,,Overcast,130,2013-05-20 03:56:00